Weather History for Rifle, CO

Change the Weather History Date:

Friday, October 7, 2011

  Actual Average Record
Temperature  
Mean Temperature 40 °F 53 °F  
Max Temperature 53 °F 69 °F 86 °F (1944)
Min Temperature 28 °F 37 °F 18 °F (1955)
Degree Days  
Heating Degree Days 24 12  
Month to date heating degree days 78  
Since 1 July heating degree days 224  
Cooling Degree Days 0 0  
Month to date cooling degree days 0  
Year to date cooling degree days 541  
Moisture  
Dew Point 29 °F    
Average Humidity 84    
Maximum Humidity 100    
Minimum Humidity 30    
Precipitation  
Precipitation 0.00 in 0.05 in 0.72 in (1916)
Month to date precipitation 0.39  
Year to date precipitation 10.86  
Sea Level Pressure  
Sea Level Pressure 29.98 in    
Wind  
Wind Speed 2 mph (WSW)    
Max Wind Speed 15 mph    
Max Gust Speed 23 mph    
Visibility 5 miles    
Events Fog    
T = Trace of Precipitation, MM = Missing Value Source: NWS Daily Summary

Daily Weather History Graph

Daily Weather History Graph

Search for Another Location

Airport:

Trip Planner

Search our weather history database for the weather conditions in past years. The results will help you decide how hot, cold, wet, or windy it might be!

Date:

Astronomy

Oct. 07, 2011 Rise Set
Actual Time 7:12 AM MDT 6:44 PM MDT
Civil Twilight 6:45 AM MDT 7:11 PM MDT
Nautical Twilight 6:14 AM MDT 7:42 PM MDT
Astronomical Twilight 5:43 AM MDT 8:13 PM MDT
Moon 4:27 PM MDT (10/7) 3:05 AM MDT (10/7)
Length of Visible Light 12h 25m
Length of Day
11h 31m
Waxing Gibbous, 84% of the Moon is Illuminated
Oct 7
Waxing Gibbous
Oct 11
Full
Oct 19
Last Quarter
Oct 26
New
Nov 2
First Quarter

Hourly Weather History & Observations

Time (MDT) Temp. Windchill Dew Point Humidity Pressure Visibility Wind Dir Wind Speed Gust Speed Precip Events Conditions
12:53 AM 33.1 °F 28.7 °F 30.9 °F 92% 29.90 in 10.0 mi SW 4.6 mph - N/A   Clear
1:43 AM 33.8 °F - 30.2 °F 87% 29.93 in 10.0 mi Calm Calm - N/A   Partly Cloudy
1:53 AM 33.1 °F - 32.0 °F 96% 29.91 in 8.0 mi Calm Calm - N/A   Mostly Cloudy
2:08 AM 33.8 °F - 33.8 °F 100% 29.94 in 1.8 mi Calm Calm - N/A   Mostly Cloudy
2:12 AM 33.8 °F - 32.0 °F 93% 29.94 in 0.8 mi Calm Calm - N/A   Mostly Cloudy
2:32 AM 32.0 °F - 30.2 °F 93% 29.95 in 0.2 mi Calm Calm - N/A Fog Fog
2:40 AM 30.2 °F 24.3 °F 30.2 °F 100% 29.95 in 0.2 mi SE 5.8 mph - N/A Fog Light Freezing Fog
2:53 AM 30.9 °F 25.2 °F 30.9 °F 100% 29.94 in 0.2 mi SSE 5.8 mph - N/A Fog Light Freezing Fog
3:09 AM 32.0 °F 25.6 °F 30.2 °F 93% 29.96 in 1.2 mi South 6.9 mph - N/A   Mostly Cloudy
3:12 AM 32.0 °F 27.5 °F 30.2 °F 93% 29.96 in 3.0 mi South 4.6 mph - N/A   Mostly Cloudy
3:19 AM 32.0 °F - 30.2 °F 93% 29.96 in 9.0 mi Calm Calm - N/A   Partly Cloudy
3:53 AM 30.9 °F 25.2 °F 30.0 °F 96% 29.98 in 2.5 mi North 5.8 mph - N/A   Partly Cloudy
3:55 AM 30.2 °F 25.4 °F 30.2 °F 100% 29.97 in 0.8 mi NNE 4.6 mph - N/A   Mist
4:08 AM 30.2 °F 25.4 °F 30.2 °F 100% 29.97 in 2.0 mi East 4.6 mph - N/A   Partly Cloudy
4:16 AM 30.2 °F - 28.4 °F 93% 29.98 in 1.0 mi Calm Calm - N/A   Mist
4:26 AM 30.2 °F - 28.4 °F 93% 29.98 in 2.5 mi Calm Calm - N/A   Partly Cloudy
4:33 AM 30.2 °F 25.4 °F 28.4 °F 93% 29.98 in 10.0 mi SSE 4.6 mph - N/A   Partly Cloudy
4:53 AM 30.0 °F - 28.9 °F 96% 30.01 in 10.0 mi Calm Calm - N/A   Clear
5:15 AM 30.2 °F - 28.4 °F 93% 29.99 in 1.5 mi Calm Calm - N/A   Scattered Clouds
5:17 AM 30.2 °F - 28.4 °F 93% 29.99 in 0.8 mi Calm Calm - N/A   Scattered Clouds
5:39 AM 28.4 °F - 28.4 °F 100% 30.00 in 1.0 mi Calm Calm - N/A   Mist
5:53 AM 28.9 °F - 28.0 °F 96% 30.02 in 0.8 mi Calm Calm - N/A   Mist
6:06 AM 28.4 °F - 28.4 °F 100% 30.00 in 1.2 mi Calm Calm - N/A   Mostly Cloudy
6:10 AM 28.4 °F - 26.6 °F 93% 30.00 in 3.0 mi Calm Calm - N/A   Mostly Cloudy
6:41 AM 28.4 °F - 26.6 °F 93% 30.00 in 2.0 mi Calm Calm - N/A   Overcast
6:47 AM 28.4 °F - 28.4 °F 100% 30.01 in 1.0 mi Calm Calm - N/A   Overcast
6:53 AM 28.9 °F - 28.0 °F 96% 30.03 in 0.2 mi Calm Calm - N/A Fog Light Freezing Fog
7:53 AM 30.0 °F - 28.9 °F 96% 30.05 in 0.2 mi Calm Calm - N/A Fog Light Freezing Fog
8:45 AM 30.2 °F - 30.2 °F 100% 30.04 in 1.2 mi Calm Calm - N/A   Mostly Cloudy
8:53 AM 30.0 °F - 30.0 °F 100% 30.06 in 0.8 mi Calm Calm - N/A   Mist
8:56 AM 30.2 °F - 30.2 °F 100% 30.04 in 1.2 mi Calm Calm - N/A   Mostly Cloudy
9:02 AM 30.2 °F - 30.2 °F 100% 30.04 in 3.0 mi Calm Calm - N/A   Mostly Cloudy
9:09 AM 32.0 °F - 30.2 °F 93% 30.04 in 10.0 mi Calm Calm - N/A   Scattered Clouds
9:53 AM 35.1 °F - 33.1 °F 92% 30.05 in 10.0 mi Calm Calm - N/A   Clear
11:53 AM 44.1 °F - 28.9 °F 55% 30.01 in 10.0 mi Calm Calm - N/A   Clear
12:53 PM 48.0 °F - 30.0 °F 50% 29.98 in 10.0 mi Calm Calm - N/A   Clear
1:53 PM 50.0 °F - 27.0 °F 41% 29.95 in 10.0 mi NW 8.1 mph - N/A   Clear
3:53 PM 53.1 °F - 28.0 °F 38% 29.92 in 10.0 mi NW 5.8 mph - N/A   Clear
4:53 PM 53.1 °F - 23.0 °F 31% 29.92 in 10.0 mi WSW 6.9 mph - N/A   Partly Cloudy
5:53 PM 52.0 °F - 21.0 °F 30% 29.93 in 10.0 mi SW 3.5 mph - N/A   Overcast
6:53 PM 48.0 °F - 25.0 °F 41% 29.95 in 10.0 mi WSW 4.6 mph - N/A   Partly Cloudy
7:53 PM 45.0 °F 38.2 °F 28.9 °F 53% 30.00 in 10.0 mi NW 15.0 mph 23.0 mph N/A   Clear
8:53 PM 43.0 °F 37.2 °F 28.0 °F 56% 30.03 in 10.0 mi NW 10.4 mph - N/A   Clear
9:53 PM 42.1 °F 34.9 °F 27.0 °F 55% 29.97 in 10.0 mi NW 13.8 mph - N/A   Clear
10:53 PM 39.0 °F 36.8 °F 28.9 °F 67% 30.01 in 10.0 mi Variable 3.5 mph - N/A   Clear
11:53 PM 37.0 °F 34.5 °F 30.0 °F 76% 29.98 in 10.0 mi Variable 3.5 mph - N/A   Clear